Content
SEND FEEDBACK

Daily
Averages
Monthly
Summary
Canada

QUEBEC CITY, QUEBEC


Home > North America > Canada > Quebec
Elevation: 239 feet     Latitude: 46 48N     Longitude: 071 23W

WEATHER
 
SELECT A DAY
Number of Records: 192,807;   Date Range: 6/30/96 - 9/17/14
 
SHARE

PRINT THIS DATA

[ ← Previous Day ]
WEATHER ALMANAC - MARCH 1, 2013
[ Next Day → ]
[ °C ]   °F
Weather ElementAverageHighLow
Temperature30.3 °F33 °F (1:00 pm)28.4 °F (1:00 am)
Dewpoint21.8 °F29 °F (1:00 am) (7:00 pm)
Humidity80.3 %98 % (1:00 am)67 % (1:00 pm)
Wind Speed10.4 mph20.7 mph (10:00 am)
Wind Gust24.2 mph (8:55 am)
Weather ElementAverage
Visibility8.5 mi
Wind DirectionENE (82.5 °)

Weather ElementTotal
Precipitation---
Heating Degree Days34.3 (Base 65)
Averaged from 36 records on March 1, 2013
WEATHER CONDITIONS BREAKOUT
WIND DIRECTION BREAKOUT
WEATHER BY HOUR - MARCH 1, 2013
[ °C ]   °F
Local TimeTemperatureDewpointHumidityBarometerVisibilityWind DirectionWind SpeedGust SpeedPrecipitationEventsConditions
1:00 AM29.0 °F29.0 °F98 %29.68 inENE (60°)5.8 mph
1:00 AM28.4 °F26.6 °F93 %29.68 in1.5 miENE (60°)10.4 mphSnowLight Snow Showers
2:00 AM28.4 °F24.8 °F86 %29.68 in2.0 miENE (60°)15.0 mph23.0 mphSnowLight Snow Showers
3:00 AM30.2 °F24.8 °F80 %29.68 in6.0 miENE (60°)15.0 mph21.9 mphSnowLight Snow Showers
4:00 AM30.0 °F27.0 °F85 %29.69 inENE (60°)9.2 mph
4:00 AM30.2 °F24.8 °F80 %29.70 in15.0 miENE (60°)13.8 mph19.6 mphSnowLight Snow Showers
5:00 AM30.2 °F24.8 °F80 %29.70 in10.0 miENE (60°)15.0 mphSnowLight Snow Showers
6:00 AM28.4 °F24.8 °F86 %29.72 in5.0 miENE (60°)16.1 mph23.0 mphSnowLight Snow Showers
7:00 AM30.2 °F24.8 °F80 %29.73 in7.0 miENE (60°)11.5 mph20.7 mphSnowLight Snow Showers
7:00 AM30.0 °F27.0 °F83 %29.72 inENE (70°)10.4 mph
8:00 AM30.2 °F24.8 °F80 %29.74 in5.0 miENE (60°)15.0 mph20.7 mphSnowLight Snow
8:55 AM30.2 °F0.0 °F2.5 miENE (70°)13.8 mph24.2 mphSnowLight Snow
9:00 AM30.2 °F24.8 °F80 %29.76 in1.0 miENE (60°)17.3 mph23.0 mphSnowLight Snow
10:00 AM30.2 °F26.6 °F86 %29.77 in1.0 miENE (60°)20.7 mphSnowLight Snow
10:00 AM30.0 °F29.0 °F92 %29.76 inENE (70°)11.5 mph
10:37 AM30.2 °F0.0 °F1.5 miENE (60°)15.0 mph21.9 mphSnowLight Snow
11:00 AM30.2 °F26.6 °F86 %29.77 in5.0 miENE (60°)13.8 mphSnowLight Snow
12:00 PM32.0 °F24.8 °F75 %29.77 in6.0 miENE (60°)15.0 mphSnowLight Snow
1:00 PM32.0 °F23.0 °F69 %29.77 in15.0 miEast (80°)13.8 mph20.7 mphOvercast
1:00 PM33.0 °F26.0 °F67 %29.75 inEast (80°)11.5 mph
2:00 PM32.0 °F23.0 °F69 %29.78 in20.0 miENE (70°)12.7 mphOvercast
2:43 PM32.0 °F0.0 °F15.0 miEast (80°)10.4 mph17.3 mphSnowLight Snow
3:00 PM32.0 °F23.0 °F69 %29.78 in8.0 miENE (60°)13.8 mphSnowLight Snow
3:10 PM30.2 °F0.0 °F2.5 miEast (80°)12.7 mph18.4 mphSnowLight Snow
3:31 PM30.2 °F0.0 °F6.0 miEast (80°)8.1 mph17.3 mphSnowLight Snow
4:00 PM31.0 °F26.0 °F73 %29.77 inEast (80°)4.6 mph
4:00 PM30.2 °F23.0 °F75 %29.78 in12.0 miEast (80°)6.9 mphSnowLight Snow
5:00 PM30.2 °F23.0 °F75 %29.78 in12.0 miEast (80°)6.9 mphMostly Cloudy
6:00 PM30.2 °F24.8 °F80 %29.79 in12.0 miEast (90°)5.8 mphOvercast
7:00 PM31.0 °F27.0 °F78 %29.78 inESE (120°)2.3 mph
7:00 PM30.2 °F24.8 °F80 %29.79 in12.0 miEast (100°)2.3 mphOvercast
8:00 PM30.2 °F24.8 °F80 %29.79 in12.0 miCalmOvercast
9:00 PM30.2 °F24.8 °F80 %29.78 in12.0 miSSW (200°)2.3 mphOvercast
10:00 PM30.0 °F27.0 °F83 %29.75 inSW (230°)2.3 mph
10:00 PM30.2 °F24.8 °F80 %29.75 in15.0 miSW (230°)6.9 mphOvercast
11:00 PM28.4 °F23.0 °F80 %29.75 in15.0 miESE (120°)5.8 mphOvercast
Hourly data recorded from CYQB, located miles away from Quebec City, Quebec







STORIES FROM OUR PARTNERS